SCP
0 0 0 0 0 0 0 0 0 0 -0 0 0 0 0 0 0 0 0 0 0 0 0 0 0 0 1 1 1 1 1 0 0 0 0 0 0 0
0 0 0 0 0 0 0 0 0 0 -0 0 0 0 0 1 0 0 0 0 0 0 0 0 0 0 0 0 0 0 0 0 0 0 0 0 0 0
1 0 1 0 0 0 0 -0 -0 0 0 0 0 0 0 0 0 1 0 0 0 0 0 0 0 0 0 0 0 0 0 0 0 0 0 0 0 0
1 1 1 0 0 0 0 -0 -0 -0 0 0 0 0 0 0 0 0 0 0 0 0 0 0 0 0 0 0 0 0 0 0 0 0 0 0 0 0
1 1 1 0 0 0 -0 -0 -0 -0 -0 0 0 0 0 0 0 0 0 0 0 0 0 0 0 0 0 0 0 0 0 0 0 0 0 0 0 0
1 1 1 0 0 0 0 -0 -0 -0 -0 -0 0 0 0 0 0 0 0 1 1 1 0 0 0 0 0 0 0 0 0 0 0 0 0 0 0 0
1 1 1 1 0 0 0 0 0 -0 -0 0 0 -0 0 0 0 0 0 0 1 1 1 1 0 0 0 0 0 0 0 0 0 0 0 0 0 0
1 1 1 0 0 0 0 0 0 0 -0 0 0 -0 -0 0 0 0 0 0 0 0 1 1 1 1 1 0 0 0 0 0 0 0 0 0 0 0
1 1 0 0 0 0 0 0 0 0 -0 -0 0 0 -0 -0 0 0 0 0 0 1 1 1 1 1 1 1 0 0 0 0 0 0 0 0 0 0
0 0 0 0 1 0 0 0 0 0 -0 -0 -0 -0 0 0 0 0 0 0 0 1 1 0 1 1 1 1 0 0 0 0 0 0 0 0 0 0
1 0 0 0 0 0 0 0 0 0 -0 0 0 0 0 0 0 0 0 0 0 0 1 1 1 1 1 1 0 0 0 0 0 0 0 0 0 0
0 0 0 0 0 0 0 0 -0 -0 -0 0 0 0 0 0 -0 0 0 0 0 0 0 1 1 0 0 0 0 0 0 0 0 0 0 0 0 0
0 0 1 0 0 0 0 -0 -0 -0 -0 0 0 0 0 0 0 0 0 0 0 0 1 1 0 1 1 1 1 0 0 0 0 0 0 0 0 0
0 0 0 0 0 0 0 0 -0 -0 -0 0 0 0 0 0 0 0 0 0 0 0 0 1 1 1 1 0 0 1 1 0 0 0 0 0 0 0
0 0 0 0 0 0 0 0 -0 -0 0 0 0 0 0 0 0 0 0 0 0 0 0 0 1 0 1 1 1 1 1 0 0 0 0 0 0 0
0 0 0 0 0 0 0 0 -0 -0 -0 -0 0 0 0 0 0 0 0 0 0 0 0 0 0 1 0 0 0 0 1 1 0 0 0 0 0 0
0 0 0 0 0 0 0 0 0 -0 -0 0 -0 0 0 0 0 0 0 0 0 0 0 0 1 0 0 0 0 0 0 0 0 0 0 0 0 0
0 0 0 0 0 0 0 0 0 0 -0 -0 -0 -0 -0 0 0 0 0 0 0 0 0 0 0 0 0 0 0 0 0 0 0 0 0 0 0 0
0 0 0 0 0 0 0 0 0 0 -0 -0 0 -0 -0 -0 0 0 0 0 0 0 0 0 0 0 0 0 0 0 0 0 0 0 0 0 0 0
0 0 0 0 0 0 0 0 0 0 0 0 0 -0 -0 0 -0 0 0 0 0 0 0 0 0 0 0 0 0 0 0 0 0 0 0 0 0 0
0 0 0 0 0 0 0 0 0 0 0 0 0 0 0 -0 0 -0 -0 0 -0 0 0 0 0 0 0 0 0 0 0 0 0 0 0 0 0 0
0 0 0 0 0 0 0 0 0 0 0 0 0 0 0 0 0 -0 0 -0 -0 -0 -0 -0 0 0 0 0 0 0 0 0 0 0 0 0 0 0
0 0 0 0 0 0 0 0 0 0 0 0 0 0 0 0 0 0 0 -0 0 0 0 -0 -0 -0 -0 0 0 -0 0 0 0 0 0 0 0 0
Wind_Speed_500mb
28 34 35 37 38 44 47 52 60 69 78 82 64 73 64 65 68 65 78 75 71 80 74 72 75 76 73 71 73 73 71 68 66 63 60 58 56 54
33 38 34 39 41 42 49 53 62 70 84 84 83 74 72 62 63 61 80 93 79 82 79 72 71 73 72 76 73 71 71 69 67 66 64 62 60 58
38 33 34 41 40 50 51 56 67 66 76 90 81 79 75 72 64 68 70 80 58 61 71 72 71 73 69 71 75 76 76 76 75 73 71 67 65 64
39 33 35 42 37 46 55 64 61 70 67 76 76 77 75 75 65 71 66 68 75 76 66 77 72 70 71 70 71 71 72 72 71 70 70 68 66 63
40 36 36 42 34 44 58 69 67 66 77 60 62 71 74 74 69 60 63 70 50 64 81 72 61 57 60 68 69 70 70 67 64 63 62 61 60 60
45 48 41 43 37 46 58 69 79 73 68 74 64 58 63 72 74 70 66 63 60 63 73 74 66 65 61 61 69 66 63 62 59 57 56 56 57 57
52 50 41 41 50 54 63 70 75 89 77 78 71 70 73 69 74 70 77 72 69 72 74 72 62 71 66 63 65 67 63 59 56 53 51 52 53 55
52 53 49 46 49 57 60 64 71 82 85 82 78 72 75 76 73 73 69 72 67 63 69 67 65 64 63 66 64 63 61 56 51 49 50 52 54 55
52 53 53 47 44 47 58 64 78 88 82 80 82 78 76 79 75 76 73 74 77 77 63 68 71 71 70 66 64 68 64 59 56 54 52 54 56 56
49 53 45 46 46 49 56 63 82 87 83 87 84 84 78 75 70 72 72 74 71 63 67 66 81 81 75 71 59 49 57 57 54 54 56 55 52 52
52 48 44 44 46 47 55 61 79 91 93 92 76 73 82 82 74 72 78 74 75 68 66 66 68 71 62 68 68 61 57 60 61 60 56 54 52 50
47 45 44 42 44 51 47 63 73 92 91 108 98 49 48 70 87 83 83 68 84 66 73 77 75 65 69 86 72 65 70 65 64 60 55 50 51 51
49 42 37 44 51 46 49 59 64 76 83 100 101 62 22 38 65 88 85 75 74 77 56 71 67 64 67 53 73 77 74 70 66 60 58 55 52 51
41 29 37 44 47 49 48 38 57 78 70 89 99 105 35 13 36 70 81 83 78 73 72 61 60 70 77 77 55 51 64 68 66 62 52 54 54 52
29 28 34 38 47 51 36 31 47 64 77 72 79 95 89 28 27 50 58 77 81 74 69 59 64 55 60 66 63 68 60 69 61 58 52 51 53 52
30 26 17 32 49 38 30 22 28 48 57 64 74 85 102 62 5 28 46 55 64 78 71 58 59 56 55 58 66 68 54 69 64 54 50 40 43 50
24 19 16 28 48 40 34 26 25 32 48 56 60 70 92 99 71 9 15 41 57 64 68 70 63 59 60 51 51 62 73 64 51 51 49 48 43 46
20 18 17 28 38 39 37 34 32 33 35 42 50 62 69 81 86 81 69 37 23 33 58 46 53 60 50 51 53 52 50 57 52 51 58 40 32 27
11 14 24 27 29 29 30 31 35 36 38 31 41 51 51 48 76 81 87 75 75 57 23 25 41 43 43 36 39 47 42 38 53 76 50 41 30 27
10 18 15 17 18 22 23 28 30 30 37 41 35 36 42 52 54 53 56 67 72 73 76 65 35 19 28 18 25 12 35 42 52 49 37 38 36 35
15 12 17 21 23 24 25 26 32 35 36 41 44 42 42 39 45 45 48 51 51 59 63 59 65 55 45 47 58 43 35 29 31 50 56 48 39 34
13 14 14 17 20 22 24 25 26 28 33 36 39 38 36 39 37 39 37 36 44 42 36 35 34 47 60 61 58 49 50 41 36 30 28 44 48 34
15 11 16 21 27 23 20 19 20 21 24 31 33 35 30 32 34 31 30 32 31 25 32 28 25 29 39 39 42 40 44 45 40 39 35 38 39 34
Wind_Direction_500mb
316 323 328 336 332 321 318 314 307 296 292 286 280 280 277 273 256 255 253 245 242 251 248 249 247 245 244 244 245 246 248 249 251 254 256 256 256 260
304 319 326 319 334 332 320 313 300 294 288 283 280 276 275 270 260 258 241 245 239 242 248 247 244 243 243 241 241 245 246 248 249 250 253 254 256 261
305 314 311 318 335 341 337 334 337 310 292 282 278 275 269 269 259 259 259 250 243 236 246 248 245 240 239 240 240 243 246 248 248 249 251 253 258 261
300 304 303 310 323 336 341 348 329 337 316 280 280 276 269 271 266 264 253 253 249 241 246 249 246 242 237 238 241 242 244 246 246 248 250 254 256 259
300 293 292 308 326 339 344 344 341 339 330 306 292 279 270 265 266 258 252 252 265 260 232 241 241 240 238 238 240 242 244 242 244 247 249 250 254 257
291 293 288 297 311 322 329 332 342 332 334 327 301 283 276 265 261 254 254 243 233 228 225 237 237 233 236 240 237 238 237 235 238 240 244 249 254 256
298 291 286 286 302 312 324 326 328 334 324 328 318 299 270 270 256 250 241 247 247 240 239 239 237 232 236 239 238 232 231 230 231 236 243 249 253 256
301 289 284 288 302 310 321 328 322 329 327 323 314 297 288 263 262 251 243 237 239 238 237 235 232 231 233 233 234 229 224 223 231 241 248 251 254 257
300 291 292 291 311 313 322 321 330 328 327 321 305 294 286 263 255 252 248 236 236 239 236 238 223 229 232 234 235 232 230 235 244 247 250 253 253 254
305 306 300 302 313 320 320 321 323 332 334 322 304 289 274 260 249 242 249 244 239 231 230 234 226 232 231 234 235 229 225 232 241 251 257 258 253 251
299 302 308 312 315 313 312 317 332 330 337 335 323 288 268 249 233 236 241 235 235 226 223 226 231 233 228 223 232 229 234 246 253 257 257 257 250 248
298 297 307 311 314 317 313 327 328 336 344 352 348 316 269 243 233 224 228 225 229 233 232 230 232 230 234 232 234 227 230 241 245 251 254 253 243 242
295 304 299 308 313 318 315 334 335 337 348 3 355 2 299 256 232 222 219 219 228 223 223 228 230 232 228 232 230 228 231 235 239 246 255 251 239 236
312 313 306 311 311 322 326 336 357 357 350 7 4 10 10 247 247 218 220 219 226 231 232 228 235 234 236 232 229 222 228 229 241 250 256 239 232 230
316 299 313 310 311 324 329 330 348 356 356 2 1 5 19 10 215 228 228 225 228 232 231 226 228 235 236 236 235 235 220 231 236 247 248 236 229 227
297 314 321 310 314 332 331 319 338 3 360 14 15 18 20 32 14 200 220 226 226 231 228 228 220 234 240 236 236 235 233 232 234 241 246 240 228 224
343 3 341 327 324 342 354 344 348 353 4 8 24 22 28 26 42 359 314 198 227 234 234 231 231 234 241 247 250 253 247 219 230 228 227 233 239 229
15 8 330 318 326 343 352 3 3 7 3 4 20 22 35 29 33 43 52 67 75 187 205 210 224 231 239 244 247 249 236 213 213 212 206 221 221 217
342 326 321 336 353 357 1 4 7 15 18 12 19 44 38 36 34 34 43 53 57 71 126 191 221 228 222 222 237 247 243 236 231 195 201 204 202 194
318 322 335 345 346 352 4 15 13 18 33 31 29 35 43 46 38 37 33 43 48 52 63 67 89 155 172 159 116 118 201 212 200 188 185 188 181 186
316 355 30 31 26 27 26 27 33 24 24 40 34 35 37 43 50 41 35 37 48 46 56 55 58 66 85 98 75 69 88 103 158 183 188 182 176 186
7 7 19 22 14 9 13 12 16 28 28 29 30 31 42 37 40 50 41 41 38 46 40 39 48 59 68 66 60 54 62 59 72 90 96 152 155 155
13 11 355 6 360 353 352 356 1 18 38 35 24 28 33 40 30 29 39 46 46 48 46 44 40 54 60 59 58 57 55 60 61 63 76 62 99 136
Wind_Speed_850mb
28 34 35 37 38 44 47 52 60 69 78 82 64 73 64 65 68 65 78 75 71 80 74 72 75 76 73 71 73 73 71 68 66 63 60 58 56 54
33 38 34 39 41 42 49 53 62 70 84 84 83 74 72 62 63 61 80 93 79 82 79 72 71 73 72 76 73 71 71 69 67 66 64 62 60 58
38 33 34 41 40 50 51 56 67 66 76 90 81 79 75 72 64 68 70 80 58 61 71 72 71 73 69 71 75 76 76 76 75 73 71 67 65 64
39 33 35 42 37 46 55 64 61 70 67 76 76 77 75 75 65 71 66 68 75 76 66 77 72 70 71 70 71 71 72 72 71 70 70 68 66 63
40 36 36 42 34 44 58 69 67 66 77 60 62 71 74 74 69 60 63 70 50 64 81 72 61 57 60 68 69 70 70 67 64 63 62 61 60 60
45 48 41 43 37 46 58 69 79 73 68 74 64 58 63 72 74 70 66 63 60 63 73 74 66 65 61 61 69 66 63 62 59 57 56 56 57 57
52 50 41 41 50 54 63 70 75 89 77 78 71 70 73 69 74 70 77 72 69 72 74 72 62 71 66 63 65 67 63 59 56 53 51 52 53 55
52 53 49 46 49 57 60 64 71 82 85 82 78 72 75 76 73 73 69 72 67 63 69 67 65 64 63 66 64 63 61 56 51 49 50 52 54 55
52 53 53 47 44 47 58 64 78 88 82 80 82 78 76 79 75 76 73 74 77 77 63 68 71 71 70 66 64 68 64 59 56 54 52 54 56 56
49 53 45 46 46 49 56 63 82 87 83 87 84 84 78 75 70 72 72 74 71 63 67 66 81 81 75 71 59 49 57 57 54 54 56 55 52 52
52 48 44 44 46 47 55 61 79 91 93 92 76 73 82 82 74 72 78 74 75 68 66 66 68 71 62 68 68 61 57 60 61 60 56 54 52 50
47 45 44 42 44 51 47 63 73 92 91 108 98 49 48 70 87 83 83 68 84 66 73 77 75 65 69 86 72 65 70 65 64 60 55 50 51 51
49 42 37 44 51 46 49 59 64 76 83 100 101 62 22 38 65 88 85 75 74 77 56 71 67 64 67 53 73 77 74 70 66 60 58 55 52 51
41 29 37 44 47 49 48 38 57 78 70 89 99 105 35 13 36 70 81 83 78 73 72 61 60 70 77 77 55 51 64 68 66 62 52 54 54 52
29 28 34 38 47 51 36 31 47 64 77 72 79 95 89 28 27 50 58 77 81 74 69 59 64 55 60 66 63 68 60 69 61 58 52 51 53 52
30 26 17 32 49 38 30 22 28 48 57 64 74 85 102 62 5 28 46 55 64 78 71 58 59 56 55 58 66 68 54 69 64 54 50 40 43 50
24 19 16 28 48 40 34 26 25 32 48 56 60 70 92 99 71 9 15 41 57 64 68 70 63 59 60 51 51 62 73 64 51 51 49 48 43 46
20 18 17 28 38 39 37 34 32 33 35 42 50 62 69 81 86 81 69 37 23 33 58 46 53 60 50 51 53 52 50 57 52 51 58 40 32 27
11 14 24 27 29 29 30 31 35 36 38 31 41 51 51 48 76 81 87 75 75 57 23 25 41 43 43 36 39 47 42 38 53 76 50 41 30 27
10 18 15 17 18 22 23 28 30 30 37 41 35 36 42 52 54 53 56 67 72 73 76 65 35 19 28 18 25 12 35 42 52 49 37 38 36 35
15 12 17 21 23 24 25 26 32 35 36 41 44 42 42 39 45 45 48 51 51 59 63 59 65 55 45 47 58 43 35 29 31 50 56 48 39 34
13 14 14 17 20 22 24 25 26 28 33 36 39 38 36 39 37 39 37 36 44 42 36 35 34 47 60 61 58 49 50 41 36 30 28 44 48 34
15 11 16 21 27 23 20 19 20 21 24 31 33 35 30 32 34 31 30 32 31 25 32 28 25 29 39 39 42 40 44 45 40 39 35 38 39 34
Wind_Direction_850mb
316 323 328 336 332 321 318 314 307 296 292 286 280 280 277 273 256 255 253 245 242 251 248 249 247 245 244 244 245 246 248 249 251 254 256 256 256 260
304 319 326 319 334 332 320 313 300 294 288 283 280 276 275 270 260 258 241 245 239 242 248 247 244 243 243 241 241 245 246 248 249 250 253 254 256 261
305 314 311 318 335 341 337 334 337 310 292 282 278 275 269 269 259 259 259 250 243 236 246 248 245 240 239 240 240 243 246 248 248 249 251 253 258 261
300 304 303 310 323 336 341 348 329 337 316 280 280 276 269 271 266 264 253 253 249 241 246 249 246 242 237 238 241 242 244 246 246 248 250 254 256 259
300 293 292 308 326 339 344 344 341 339 330 306 292 279 270 265 266 258 252 252 265 260 232 241 241 240 238 238 240 242 244 242 244 247 249 250 254 257
291 293 288 297 311 322 329 332 342 332 334 327 301 283 276 265 261 254 254 243 233 228 225 237 237 233 236 240 237 238 237 235 238 240 244 249 254 256
298 291 286 286 302 312 324 326 328 334 324 328 318 299 270 270 256 250 241 247 247 240 239 239 237 232 236 239 238 232 231 230 231 236 243 249 253 256
301 289 284 288 302 310 321 328 322 329 327 323 314 297 288 263 262 251 243 237 239 238 237 235 232 231 233 233 234 229 224 223 231 241 248 251 254 257
300 291 292 291 311 313 322 321 330 328 327 321 305 294 286 263 255 252 248 236 236 239 236 238 223 229 232 234 235 232 230 235 244 247 250 253 253 254
305 306 300 302 313 320 320 321 323 332 334 322 304 289 274 260 249 242 249 244 239 231 230 234 226 232 231 234 235 229 225 232 241 251 257 258 253 251
299 302 308 312 315 313 312 317 332 330 337 335 323 288 268 249 233 236 241 235 235 226 223 226 231 233 228 223 232 229 234 246 253 257 257 257 250 248
298 297 307 311 314 317 313 327 328 336 344 352 348 316 269 243 233 224 228 225 229 233 232 230 232 230 234 232 234 227 230 241 245 251 254 253 243 242
295 304 299 308 313 318 315 334 335 337 348 3 355 2 299 256 232 222 219 219 228 223 223 228 230 232 228 232 230 228 231 235 239 246 255 251 239 236
312 313 306 311 311 322 326 336 357 357 350 7 4 10 10 247 247 218 220 219 226 231 232 228 235 234 236 232 229 222 228 229 241 250 256 239 232 230
316 299 313 310 311 324 329 330 348 356 356 2 1 5 19 10 215 228 228 225 228 232 231 226 228 235 236 236 235 235 220 231 236 247 248 236 229 227
297 314 321 310 314 332 331 319 338 3 360 14 15 18 20 32 14 200 220 226 226 231 228 228 220 234 240 236 236 235 233 232 234 241 246 240 228 224
343 3 341 327 324 342 354 344 348 353 4 8 24 22 28 26 42 359 314 198 227 234 234 231 231 234 241 247 250 253 247 219 230 228 227 233 239 229
15 8 330 318 326 343 352 3 3 7 3 4 20 22 35 29 33 43 52 67 75 187 205 210 224 231 239 244 247 249 236 213 213 212 206 221 221 217
342 326 321 336 353 357 1 4 7 15 18 12 19 44 38 36 34 34 43 53 57 71 126 191 221 228 222 222 237 247 243 236 231 195 201 204 202 194
318 322 335 345 346 352 4 15 13 18 33 31 29 35 43 46 38 37 33 43 48 52 63 67 89 155 172 159 116 118 201 212 200 188 185 188 181 186
316 355 30 31 26 27 26 27 33 24 24 40 34 35 37 43 50 41 35 37 48 46 56 55 58 66 85 98 75 69 88 103 158 183 188 182 176 186
7 7 19 22 14 9 13 12 16 28 28 29 30 31 42 37 40 50 41 41 38 46 40 39 48 59 68 66 60 54 62 59 72 90 96 152 155 155
13 11 355 6 360 353 352 356 1 18 38 35 24 28 33 40 30 29 39 46 46 48 46 44 40 54 60 59 58 57 55 60 61 63 76 62 99 136